Latest METARs, TAFs and NOTAMs for MYNN


---------------------------------------------------------------------------
	(OBSERVATIONS)
MYNN 250700Z 09003KT 9999 FEW018 26/23 A3012=
MYNN 250600Z 09003KT 9999 FEW018 26/23 A3014=
MYNN 250500Z 09004KT 9999 SCT018 26/23 A3015=
---------------------------------------------------------------------------
	(TERMINAL AREA FORECAST)
MYNN 250300Z 2506/2606 10015KT 9999 FEW015CB SCT018 PROB30 2515/2521
    10017KT 8000 SHRA SCT014CB BKN018=
---------------------------------------------------------------------------
	(NOTAMS)


MYNN A0022/15 WITH THE EXCEPTION OF MYNN AND MYGF RNAV APCH PROC
    IN THE BAHAMAS ARE NOT AUTH DUE TO AIRSPACE CLASSIFICATION
    RESTRICTIONS. 26 FEB 15:00 2015 UNTIL 29 MAY 21:00 2015.
    CREATED: 26 FEB 14:35 2015

MYNN A0025/15 REF THE BAHAMAS AIP PAGE AD 2-46-1 SECTION MYGF
    AD 2.10.2.3 #6 MET BRIEFING OFFICE THE OPERATIONAL HOURS
    ARE MONDAY TO SUNDAY (7 DAYS PER WEEK) 0700LOCAL/1200UTC
    UNTIL 2000LOCAL/0100UTC INFORMATION WILL BE INCORPORATED
    IN THE AIP. 03 MAR 18:00 2015 UNTIL 30 JUN 23:59 2015. CREATED:
    03 MAR 17:20 2015

MYNN A0029/15 AIRMEN ARE ADZ CIRCLING MINIMA CAT C OCA/OCH RAISED
    FM 690/674 TO 770/754 DUE OBST (BUILDINGS) LOC BTN COOR N25
    04 10.56 W077 23 45.24 AND N25 04 14.45 W077 23 52.45 ON
    A QDR OF 072.00DEG AT 4.2NM FM MYNN ARP WITH HIGHEST POINT
    374FT AMSL. BUILDINGS ARE SUITED WITH MEDIUM INST R OBST
    LIGHTS. 12 MAR 18:00 2015 UNTIL 12 JUN 18:00 2015. CREATED:
    12 MAR 18:22 2015

MYNN A0068/13 VOR Y RWY 14 FEEDER RTE FM MAJUR TO MUNIE NOT AVBL
    VOR Y RWY 14 FEEDER RTE FM MELON TO MUNIE NOT AVBL. SFC -
    UNL, 19 APR 19:55 2013 UNTIL PERM. CREATED: 19 APR 19:51
    2013

MYNN A0069/13 VOR Y RWY 09 FEEDER RTE FM MAJUR TO MUSSE NOT AVBL
    REMOVE PROCEDURE NOTE 'RADAR REQUIRED' FM APP CHART. SFC
    - UNL, 19 APR 19:55 2013 UNTIL PERM. CREATED: 19 APR 19:52
    2013

MYNN A0070/13 VOR Y RWY 32 FEEDER RTE FM PRUNE TO WELKS NOT AVBL
    REMOVE PROCEDURE NOTE 'RADAR REQUIRED' FM APP CHART. SFC
    - UNL, 19 APR 19:55 2013 UNTIL PERM. CREATED: 19 APR 19:54
    2013

MYNN A0076/15 CHECKLIST (A) SERIES YEAR=2010 0277 YEAR=2013 0068
    0069 0070 YEAR=2015 0022 0025 0029 0030 0037 0043 0044 0045
    0046 0047 0048 0049 0050 0051 0052 0053 0054 0055 0061 0065
    0071 LATEST PUBLICATIONS AIP AMDT 02/14 EFFECTIVE AUGUST
    21, 2014 AIC 04/14. 30 APR 20:00 2015 UNTIL 29 MAY 23:59
    2015. CREATED: 30 APR 19:02 2015

MYNN A0088/15 WEF JULY 01, 2015 ALL VFR AND IFR FLIGHTS OPR IN
    AND THRU NASSAU FIR/CTA ALL FLIGHTS ARRIVING AND DEPARTING
    MYNN ARE REQUIRED TO FILE A PLN WITH NASSAU FIS FLIGHT PLANS
    SUBMITTED DUR FLT SHOULD NORMALLY BE TRANSMITTED ON NASSAU
    RDO FREQ 128.00 MHZ OR 124.200 MHZ PRIOR TO 25 DME FM ZQA
    NON-COMPLIANT ACFT THAT INTEND TO OPR WI NASSAU CTA/FIR WILL
    NOT BE AUTHORIZED OR PERMITTED. 01 JUL 23:59 2015 UNTIL PERM.
    CREATED: 13 MAY 18:03 2015

MYNN B0013/15 CHECKLIST (B) SERIES YEAR=2015 0004 0008 0009 0011
    LATEST PUBLICATIONS AIP AMDT 02/14 EFFECTIVE AUGUST 21 2014
    AIC 04/14. 30 APR 20:00 2015 UNTIL 29 MAY 23:59 2015. CREATED:
    30 APR 19:02 2015

---------------------------------------------------------------------------